Voltar ao catálogo

OPS 5805

AtivoMilitarHEO
NORAD 12093·PAYLOAD·🇺🇸 United States

Lançado Dec 13, 1980 de Vandenberg Space Force Base

Loading…

Próximas Passagens (próximas 24 horas)

TLE

AtualizadoSource: Space-Track

Época: Sep 10, 2026, 19:38 UTC

1 12093U 80100A   26253.81848112 -.00000638  00000-0  00000-0 0  9993
2 12093  63.8650 195.0287 6415106 267.0824  23.2749  2.00268455 53871

Acompanhe OPS 5805 em tempo real com AllMySat

Download on the App Store